EW4831 Weather Reports


time (UTC)temp
F
wind
direction
speed
knots
gust
knots
rain 1hr
in
rain 24hr
in
rain mn
in
humidity
%
barometer
mb
20260505124540 0 0.0 0.0 0.00 0.00 0.00 1015.0
20260505123036 0 0.0 0.0 0.00 0.00 0.00 1015.0
20260505121531 0 0.0 0.0 0.00 0.00 0.00 1014.9
20260505120029 0 0.0 0.0 0.00 0.00 0.00 1014.8
20260505114522 0 0.0 0.0 0.00 0.00 0.00 1014.8
20260505113018 0 0.0 0.0 0.00 0.00 0.00 1014.8
20260505111519 0 0.0 0.0 0.00 0.00 0.00 1014.8
20260505101518 54 193 0.0 0.0 0.00 0.00 0.00 85 1014.2
20260505100009 54 193 0.0 0.0 0.00 0.00 0.00 85 1014.3
20260505094504 54 184 0.0 0.0 0.00 0.00 0.00 84 1014.3
20260505093105 54 174 0.0 0.0 0.00 0.00 0.00 84 1014.1
20260505091558 55 174 0.0 0.0 0.00 0.00 0.00 84 1014.0
20260505090100 55 168 0.0 0.0 0.00 0.00 0.00 83 1013.9
20260505084604 55 163 0.0 0.0 0.00 0.00 0.00 82 1013.8
20260505083052 56 96 0.0 0.9 0.00 0.00 0.00 83 1013.8
20260505081604 56 91 0.0 0.0 0.00 0.00 0.00 83 1013.6
20260505080059 56 91 0.0 0.0 0.00 0.00 0.00 83 1013.5
20260505074548 56 91 0.0 0.0 0.00 0.00 0.00 84 1013.4
20260505073045 56 91 0.0 0.0 0.00 0.00 0.00 84 1013.2
20260505071550 57 91 0.0 0.0 0.00 0.00 0.00 83 1013.1
20260505070040 57 91 0.0 0.9 0.00 0.00 0.00 84 1013.0
20260505064541 57 91 0.0 0.0 0.00 0.00 0.00 82 1012.8
20260505063047 58 94 0.0 0.9 0.00 0.00 0.00 81 1012.5
20260505061542 58 79 0.0 0.9 0.00 0.00 0.00 81 1012.3
20260505060039 59 18 0.0 0.0 0.00 0.00 0.00 82 1012.2
20260505054544 60 3 0.0 0.0 0.00 0.00 0.00 81 1012.1
20260505053043 60 3 0.0 0.0 0.00 0.00 0.00 79 1012.0
20260505051541 61 2 0.0 0.9 0.00 0.00 0.00 76 1011.8
20260505041535 64 253 0.0 0.9 0.00 0.00 0.00 76 1011.1
20260505040034 65 253 0.0 0.0 0.00 0.00 0.00 74 1011.0
20260505034534 66 236 0.0 0.9 0.00 0.00 0.00 72 1010.7
20260505033033 67 236 0.0 0.0 0.00 0.00 0.00 69 1010.4
20260505031538 68 236 0.0 0.9 0.00 0.00 0.00 67 1010.3
20260505030032 70 201 0.0 3.5 0.00 0.00 0.00 65 1010.1
20260505024531 70 171 0.0 2.6 0.00 0.00 0.00 66 1009.9
20260505023030 71 172 0.0 1.7 0.00 0.00 0.00 64 1009.9
20260505021534 71 176 0.0 2.6 0.00 0.00 0.00 64 1009.8
20260505020036 72 167 0.0 0.9 0.00 0.00 0.00 63 1009.8
20260505014528 72 275 0.0 1.7 0.00 0.00 0.00 62 1009.8
20260505013030 72 210 0.0 2.6 0.00 0.00 0.00 63 1009.9
20260505011533 72 242 0.0 5.2 0.00 0.00 0.00 63 1010.0
20260505010036 72 250 0.9 5.2 0.00 0.00 0.00 61 1010.1
20260505004525 72 194 0.9 6.1 0.00 0.00 0.00 62 1010.2
20260505003025 71 174 0.9 3.5 0.00 0.00 0.00 62 1010.1
20260505001523 72 202 0.9 4.3 0.00 0.00 0.00 61 1010.2
20260505000038 71 150 0.0 3.5 0.00 0.00 0.00 62 1010.3
20260504234521 72 220 0.0 4.3 0.00 0.00 0.00 61 1010.4
20260504233020 71 245 0.9 5.2 0.00 0.00 0.00 61 1010.4
20260504231520 71 205 0.9 3.5 0.00 0.00 0.00 61 1010.6
20260504230034 71 185 0.0 6.1 0.00 0.00 0.00 61 1010.7
20260504224522 70 231 0.0 3.5 0.00 0.00 0.00 61 1010.9
20260504223018 70 266 1.7 5.2 0.00 0.00 0.00 61 1011.0
20260504221536 69 98 0.0 3.5 0.00 0.00 0.00 62 1011.2
20260504220017 69 278 0.9 5.2 0.00 0.00 0.00 61 1011.5
20260504214516 68 143 0.0 3.5 0.00 0.00 0.00 62 1011.6
20260504213015 68 273 0.9 4.3 0.00 0.00 0.00 62 1011.8
20260504211514 68 246 0.0 3.5 0.00 0.00 0.00 62 1012.0
20260504210115 67 80 0.0 4.3 0.00 0.00 0.00 62 1012.2
20260504204514 66 104 0.0 2.6 0.00 0.00 0.00 65 1012.4
20260504203012 66 251 0.0 3.5 0.00 0.00 0.00 66 1012.6
20260504201512 65 87 0.9 4.3 0.00 0.00 0.00 67 1012.7
20260504200011 64 165 0.9 4.3 0.00 0.00 0.00 69 1012.9
20260504194510 62 147 0.9 3.5 0.00 0.00 0.00 72 1013.0
20260504193008 62 72 0.0 5.2 0.00 0.00 0.00 74 1013.0
20260504191511 60 257 0.9 2.6 0.00 0.00 0.00 75 1013.2
20260504190007 60 193 0.0 2.6 0.00 0.00 0.00 77 1013.2
20260504184506 59 84 0.9 4.3 0.00 0.00 0.00 78 1013.3
20260504183004 58 137 0.9 3.5 0.00 0.00 0.00 79 1013.4
20260504181507 58 167 0.0 3.5 0.00 0.00 0.00 80 1013.2
20260504180002 57 165 0.0 1.7 0.00 0.00 0.00 81 1013.2
20260504174501 57 241 0.0 2.6 0.00 0.00 0.00 82 1013.3
20260504173059 56 164 0.0 2.6 0.00 0.00 0.00 83 1013.3
20260504171600 56 255 0.0 2.6 0.00 0.00 0.00 83 1013.1